Hourly Data Report for September 29, 2017

All times are specified in Local Standard Time (LST). Add 1 hour to adjust for Daylight Saving Time where and when it is observed.

WINNIPEG A CS
MANITOBA

49°55'00.000" N
97°14'58.000" W
238.70 m
502S001
71849
XWG

Download Data

Hourly Data (September 2017)
Hourly Data Report for September 29, 2017
Temp Definition
°C
Dew Point Temp Definition
°C
Rel Hum Definition
%
Wind Dir Definition
10's deg

Wind Spd Definition
km/h
Visibility Definition
km
Stn Press Definition
kPa
Hmdx Definition


Wind Chill Definition


Weather Definition


TIME
00:00 3.1 2.2 94 29 7   99.82     LegendNANA
01:00 1.5 0.8 95 28 9   99.84     LegendNANA
02:00 0.5 -0.1 96 29 7   99.88     LegendNANA
03:00 0.7 0.3 98 31 5   99.93     LegendNANA
04:00 -0.3 -0.5 98 28 6   99.98   -2 LegendNANA
05:00 -0.7 -0.9 98 30 3   100.01   -2 LegendNANA
06:00 0.0 0.0 99 33 4   100.03   -1 LegendNANA
07:00 0.7 0.6 99   0   100.05     LegendNANA
08:00 4.7 3.7 94   0   100.07     LegendNANA
09:00 10.2 6.3 77 13 8   100.09     LegendNANA
10:00 12.0 6.0 67 15 7   100.09     LegendNANA
11:00 13.5 4.7 55 16 6   100.06     LegendNANA
12:00 13.7 5.1 56 21 6   100.01     LegendNANA
13:00 14.6 4.7 52 18 7   99.94     LegendNANA
14:00 15.4 4.5 48 17 8   99.87     LegendNANA
15:00 15.6 4.5 47 14 12   99.83     LegendNANA
16:00 15.9 4.4 46 19 16   99.77     LegendNANA
17:00 15.3 4.8 49 17 15   99.72     LegendNANA
18:00 12.4 4.7 59 18 10   99.67     LegendNANA
19:00 9.5 4.5 71 16 10   99.63     LegendNANA
20:00 8.1 4.8 80 16 10   99.61     LegendNANA
21:00 8.3 4.7 78 18 11   99.59     LegendNANA
22:00 8.5 5.1 79 17 15   99.57     LegendNANA
23:00 8.4 5.2 80 17 17   99.53     LegendNANA

Notes on Data Quality.

Legend

  • E = Estimated
  • M = Missing
  • NA = Not Available
  • ‡ = Partner data that is not subject to review by the National Climate Archives
Date modified: